This is the latest recevied weather packets stored in our database for station/object JA0ZJX-13. If no packets are shown the sender has not sent any weather packets the latest 10 day(s).
| Time | Temp. | Humidity | Pressure | Rain* | Wind** | Luminosity | Snow |
|---|---|---|---|---|---|---|---|
| 1777529019 | 16.11° C | 66% | 1017 hPa | 0 mm | - | 343 W/m² | - |
| 1777528407 | 16.11° C | 65% | 1017 hPa | 0 mm | - | 322 W/m² | - |
| 1777527814 | 16.67° C | 65% | 1017.1 hPa | 0 mm | - | 330 W/m² | - |
| 1777527208 | 16.11° C | 65% | 1017.3 hPa | 0 mm | - | 350 W/m² | - |
| 1777526618 | 16.11° C | 65% | 1017.2 hPa | 0 mm | - | 353 W/m² | - |
| 1777526007 | 16.11° C | 66% | 1017.7 hPa | 0 mm | - | 367 W/m² | - |
| 1777525417 | 16.11° C | 66% | 1017.6 hPa | 0 mm | - | 350 W/m² | - |
| 1777524810 | 16.11° C | 67% | 1017.8 hPa | 0 mm | - | 348 W/m² | - |
| 1777524219 | 15.56° C | 65% | 1017.9 hPa | 0 mm | - | 367 W/m² | - |
| 1777523608 | 15° C | 66% | 1017.8 hPa | 0 mm | - | 381 W/m² | - |
| 1777523017 | 15° C | 67% | 1018.2 hPa | 0 mm | - | 406 W/m² | - |
| 1777522411 | 14.44° C | 67% | 1018.1 hPa | 0 mm | - | 373 W/m² | - |
| 1777521820 | 14.44° C | 67% | 1018.2 hPa | 0 mm | - | 378 W/m² | - |
| 1777521209 | 14.44° C | 67% | 1018.5 hPa | 0 mm | - | 446 W/m² | - |
| 1777520621 | 14.44° C | 67% | 1018.4 hPa | 0 mm | - | 413 W/m² | - |
| 1777520011 | 13.89° C | 67% | 1018.4 hPa | 0 mm | - | 524 W/m² | - |
| 1777519420 | 13.89° C | 67% | 1018.5 hPa | 0 mm | - | 475 W/m² | - |
| 1777518810 | 13.89° C | 68% | 1018.7 hPa | 0 mm | - | 508 W/m² | - |
| 1777518224 | 13.33° C | 68% | 1018.9 hPa | 0 mm | - | 441 W/m² | - |
| 1777517614 | 13.33° C | 70% | 1019.1 hPa | 0 mm | - | 424 W/m² | - |
| 1777517022 | 12.78° C | 71% | 1019.4 hPa | 0 mm | - | 446 W/m² | - |
| 1777516410 | 12.78° C | 70% | 1019.6 hPa | 0 mm | - | 397 W/m² | - |
| 1777515824 | 12.78° C | 71% | 1019.6 hPa | 0 mm | - | 378 W/m² | - |
| 1777515211 | 12.22° C | 71% | 1019.8 hPa | 0 mm | - | 367 W/m² | - |
| 1777514620 | 12.22° C | 72% | 1020.1 hPa | 0 mm | - | 367 W/m² | - |
* Rain latest hour (hover to see other rain measurements)
** Current wind speed in m/s (hover to see current wind gust speed)